Starlink 33814

operational
NORAD ID: 63582 Int'l Des: 2025-076 Owner: SPXS Country: US Constellation: starlink
LEOCIRCULAR

关于 Starlink 33814

正在加载描述...

实时位置

正在加载3D地球...

即将过境

高度历史

Altitude vs Time

uPlot chart will show altitude changes over time

两行轨道根数

1 63582U 25076P 25352.54669419 .00018982 00000-0 69745-3 0 9997
2 63582 43.0029 59.6897 0001191 265.5892 94.4824 15.27583948 39428
Epoch: Dec 18, 2025 • Age: 16 hours

当前状态

高度 485.6 km
速度 7.63 km/s
星下点 37.37°N, 53.88°W
发射日期 Apr 14, 2025
运行时间 0.6 years
类型 internet

技术详情

分类 Payload
质量 575.00 kg
干质量 530.00 kg
总质量 575.00 kg
长度 0.30 m
直径 4.10 m
跨度 29.00 m
形状 Box + pan
制造商 SPXS
平台类型 Starlink V2MO
阶段状态 In Orbit
所有者/国家 SPXS/US

大型星座

Loading constellations...